{"data":{"norad_id":67998,"intl_designator":"2026-039N","name":"STARLINK-36988","alt_names":[],"object_type":"PAYLOAD","status":"ACTIVE","operator":null,"country":"US","launch_date":"2026-02-27","launch_site_code":"AFETR","launch_vehicle":null,"mission":null,"orbit_class":"UNKNOWN","rcs_meters":null,"size_class":null,"mass_kg":null,"dimensions":null,"purposes":["comms"],"wikipedia_slug":null,"has_3d_model":false,"image_url":null,"decayed_at":null,"tle_current":{"epoch":"2026-09-20T01:30:19.324224Z","epoch_age_seconds":97460,"freshness":"FRESH","line1":"1 67998U 26039N   26263.06272366  .00014800  00000+0  54607-3 0  9997","line2":"2 67998  43.0007  30.9216 0001911 268.6197  91.4435 15.27591179 31431","mean_motion":15.27591179,"eccentricity":0.0001911,"inclination_deg":43.0007,"raan_deg":30.9216,"arg_perigee_deg":268.6197,"mean_anomaly_deg":91.4435,"bstar":0.00054607,"rev_number":3143,"period_min":94.266058864169,"perigee_km":481.70445603004,"apogee_km":484.32678856229,"semimajor_km":6861.1526222962,"source":"CELESTRAK","updated_at":"2026-09-20T09:00:43.737189Z"}}}